This is the latest recevied weather packets stored in our database for station/object C31FR-13. If no packets are shown the sender has not sent any weather packets the latest 10 day(s).
| Time | Temp. | Humidity | Pressure | Rain* | Wind** | Luminosity | Snow |
|---|---|---|---|---|---|---|---|
| 1777977662 | 13.33° C | 47% | 1011 hPa | - | - | - | - |
| 1777977363 | 13.33° C | 48% | 1011 hPa | - | - | - | - |
| 1777977063 | 13.33° C | 48% | 1011.1 hPa | - | - | - | - |
| 1777976763 | 13.33° C | 50% | 1011.2 hPa | - | - | - | - |
| 1777976462 | 13.33° C | 49% | 1011.2 hPa | - | - | - | - |
| 1777976163 | 13.33° C | 51% | 1011.1 hPa | - | - | - | - |
| 1777975863 | 13.89° C | 50% | 1011.1 hPa | - | - | - | - |
| 1777975563 | 13.89° C | 50% | 1011.2 hPa | - | - | - | - |
| 1777975262 | 13.33° C | 51% | 1011.2 hPa | - | - | - | - |
| 1777974963 | 13.33° C | 52% | 1011.3 hPa | - | - | - | - |
| 1777974663 | 13.33° C | 57% | 1011.4 hPa | - | - | - | - |
| 1777974062 | 12.78° C | 68% | 1011.5 hPa | - | - | - | - |
| 1777973762 | 12.78° C | 67% | 1011.6 hPa | - | - | - | - |
| 1777973463 | 12.22° C | 66% | 1011.8 hPa | - | - | - | - |
| 1777973163 | 12.78° C | 68% | 1011.8 hPa | - | - | - | - |
| 1777972864 | 12.78° C | 69% | 1011.8 hPa | - | - | - | - |
| 1777971962 | 12.22° C | 73% | 1012 hPa | - | - | - | - |
| 1777971662 | 11.67° C | 71% | 1012.2 hPa | - | - | - | - |
| 1777971362 | 11.67° C | 74% | 1012.1 hPa | - | - | - | - |
| 1777971062 | 11.67° C | 72% | 1012.2 hPa | - | - | - | - |
| 1777970763 | 11.11° C | 73% | 1012.3 hPa | - | - | - | - |
| 1777970463 | 11.11° C | 72% | 1012.3 hPa | - | - | - | - |
| 1777970163 | 11.11° C | 71% | 1012.4 hPa | - | - | - | - |
| 1777969862 | 11.11° C | 73% | 1012.5 hPa | - | - | - | - |
| 1777969561 | 10° C | 76% | 1012.5 hPa | - | - | - | - |
* Rain since midnight (hover to see other rain measurements)
** Current wind speed in m/s (hover to see current wind gust speed)